AirNav   Air Wisconsin Up To $57,000 Bonus
 
 1239 users online  

L17 Taft-Kern County Airport
Taft, California, USA

GOING TO TAFT?


FAA INFORMATION EFFECTIVE 20 MAY 2021

Location

FAA Identifier: L17
Lat/Long: 35-08-29.9691N 119-26-16.2251W
35-08.499485N 119-26.270418W
35.1416581,-119.4378403
(estimated)
Elevation: 858.2 ft. / 261.6 m (surveyed)
Variation: 14E (1985)
From city: 1 mile E of TAFT, CA
Time zone: UTC -7 (UTC -8 during Standard Time)
Zip code: 93268

Airport Operations

Airport use: Open to the public
Activation date: 04/1940
Control tower: no
ARTCC: LOS ANGELES CENTER
FSS: RANCHO MURIETA FLIGHT SERVICE STATION
NOTAMs facility: RIU (NOTAM-D service available)
Attendance: SAT-SUN 1000-1600, ALL MON-FRI 0800-1600
Pattern altitude: 1658.2 ft. MSL
Wind indicator: lighted
Segmented circle: yes
Lights: MIRL RY 07/25 AND PAPI RY 25 NIGHT USE ONLY ACTVT- CTAF.
Beacon: white-green (lighted land airport)
Operates sunset to sunrise.

Airport Communications

CTAF/UNICOM: 122.8

Nearby radio navigation aids

VOR radial/distance  VOR name  Freq  Var
FLWr066/21.2FELLOWS VOR/DME117.5016E
EHFr205/26.5SHAFTER VORTAC115.4014E
GMNr290/34.8GORMAN VORTAC116.1016E

Airport Services

Fuel available: 100LL JET-A
100LL:SELF SERVICE ONLY.
Parking: tiedowns
Airframe service: MINOR
Powerplant service: MINOR
Bottled oxygen: NONE
Bulk oxygen: NONE

Runway Information

Runway 7/25

Dimensions: 3283 x 60 ft. / 1001 x 18 m
Surface: asphalt, in fair condition
Weight bearing capacity: 
Single wheel: 4.0
Runway edge lights: medium intensity
Runway edge markings: MKD WITH X'S NO LDGS TKOF ONLY.
RUNWAY 7  RUNWAY 25
Latitude: 35-08.450232N35-08.548737N
Longitude: 119-26.594825W119-25.946012W
Elevation: 858.2 ft.759.2 ft.
Traffic pattern: leftleft
Runway heading: 066 magnetic, 080 true246 magnetic, 260 true
Markings: NSTD, in fair conditionbasic, in fair condition
Visual slope indicator: 2-light PAPI on left (3.50 degrees glide path)
Runway end identifier lights: nono
Touchdown point: yes, no lightsyes, no lights
Obstructions: 25 ft. pole, 385 ft. from runway, 100 ft. left of centerline, 7:1 slope to clearnone
RY 25 +4 FT BRUSH 150 FT FM EOR 50 FT RIGHT.

Airport Ownership and Management from official FAA records

Ownership: Publicly-owned
Owner: COUNTY OF KERN DEPT OF AIRPORTS
3701 WINGS WAY, SUITE 300
BAKERSFIELD, CA 93308-7026
Phone 661-391-1800
Manager: RON BREWSTER
3701 WINGS WAY, SUITE 300
BAKERSFIELD, CA 93308-7026
Phone (661) 391-1824
CELL PHONE: (661) 747-4053 24 HRS: (661) 393-3868 FAX: (661) 391-1801 EMAIL: BREWSTERR@CO.KERN.CA.US

Airport Operational Statistics

Aircraft based on the field: 11
Single engine airplanes: 9
Multi engine airplanes: 2
    
Aircraft operations: avg 27/day *
75% local general aviation
20% transient general aviation
5% air taxi
* for 12-month period ending 31 January 2020

Additional Remarks

RY 25 STEEP UPHILL GRADE (2.2%).
BE ALERT TO LGTD CRANES WITHIN 5 NMR 200' AGL AND BELOW.
RY 07/25 HAS A DRY STREAMBED NE END.
RY 07 NO TKOF WITH TAILWINDS.
NO STUDENT SOLO FLIGHTS PERMITTED.
FOR ARPT INFORMATION CALL (661) 393-7990.
FOR CD CTC LOS ANGELES ARTCC AT 661-575-2079.

Instrument Procedures

There are no published instrument procedures at L17.

Some nearby airports with instrument procedures:

L45 - Bakersfield Municipal Airport (24 nm NE)
KMIT - Shafter Airport-Minter Field (25 nm NE)
KBFL - Meadows Field Airport (26 nm NE)
KDLO - Delano Municipal Airport (38 nm N)
KIZA - Santa Ynez Airport (45 nm SW)
 
Loc | Ops | Rwys | IFR | FBO | Links
Com | Nav | Svcs | Stats | Notes
Area around L17 (Taft-Kern County Airport)
 
Road maps at: MapQuest Bing Google
 
Aerial photo
WARNING: Photo may not be current or correct
Aerial photo of L17 (Taft-Kern County Airport)
Photo by Mike Evans
Photo taken 12-May-2009

Do you have a better or more recent aerial photo of Taft-Kern County Airport that you would like to share? If so, please send us your photo.

 
Sectional chart

 
Airport distance calculator
Flying to Taft-Kern County Airport? Find the distance to fly.

From to L17

Sunrise and sunset
Times for 15-Jun-2021
 Local
(UTC-7)
 Zulu
(UTC)
Morning civil twilight05:1412:14
Sunrise05:4412:44
Sunset20:1303:13
Evening civil twilight20:4203:42

Current date and time
Zulu (UTC)  15-Jun-2021 22:46:21
Local (UTC-7)  15-Jun-2021 15:46:21
 
METAR
KBFL 
26nm NE 
152154Z 22007KT 9SM CLR 28/08 A3001 RMK AO2 SLP155 T02830078
KDLO 
38nm N 
152215Z AUTO 00000KT 10SM CLR 28/09 A2999 RMK AO2 T02820085
KSDB 
43nm SE 
152153Z AUTO 32009KT 10SM CLR 33/03 A3015 RMK AO2 SLP145 T03330028 $
KIZA 
45nm SW 
152215Z AUTO 26012G18KT 10SM CLR 30/10 A2990 RMK AO2
KSBA 
47nm SW 
152153Z 15008KT 10SM CLR 22/14 A2985 RMK AO2 SLP108 T02170144
KTSP 
49nm E 
152215Z AUTO 32017KT 10SM CLR 25/05 A3015 RMK AO2
TAF
KBFL 
26nm NE 
151720Z 1518/1618 VRB04KT P6SM SKC FM152000 30010KT P6SM SCT200 FM160300 34006KT P6SM BKN200 FM160900 VRB04KT P6SM BKN200
NOTAMs
Click for the latest NOTAMs
NOTAMs are issued by the DoD/FAA and will open in a separate window not controlled by AirNav.

 

 
 

FBO, Fuel Providers, and Aircraft Ground Support

  
 Business Name 
 
 Contact 
 
 Services / Description 
 
Fuel Prices
 
Comments
  
CB & RR, LLC 661-765-5330
[email]
Aviation fuel, Aircraft parking (ramp or tiedown), Restrooms, Showers

More info about CB & RR, LLC
World Fuel Services
100LL Jet A
SS $5.75 $3.40 
 Updated 15-Jun-2021
 
   write
SS=Self service
Update Fuel Prices
 

Would you like to see your business listed on this page?

 If your business provides an interesting product or service to pilots, flight crews, aircraft, or users of the Taft-Kern County Airport, you should consider listing it here.  To start the listing process, click on the button below
 
Add a business
 

Other Pages about Taft-Kern County Airport

Update a link
 
Copyright © AirNav, LLC. All rights reserved. Privacy Policy  Contact